sat.trackr.live / text

‹ back to catalog

ONEWEB-0695

NORAD 61602 · 2024-188J

PAYLOAD ACTIVE UNKNOWN

§ Identity

Operator
Country
UK
Launch date
2024-10-20
Launch site
AFWTR
Launch vehicle
Mass (kg)
RCS (m²)

Purposes: comms

External: N2YO · Heavens-Above · Gunter

§ Orbital elements

Epoch: 2026-09-19T06:23:37.310784Z

Period
109.80 min
Inclination
87.8964°
Eccentricity
0.0001334
Mean motion
13.11419153 rev/d
Perigee alt
1,216.7 km
Apogee alt
1,218.7 km
Semi-major
7,595.8 km
B*
1.7300e-3
RAAN
2.3704°
Arg perigee
109.4145°
Mean anomaly
250.7127°
Rev number
9,679

§ Raw data

ONEWEB-06951 61602U 24188J   26262.26640406  .00000626  00000+0  17300-2 0  99902 61602  87.8964   2.3704 0001334 109.4145 250.7127 13.11419153 96794

JSON: /api/v1/satellites/61602 · /tle

For live sub-satellite position, see the globe view (requires WebGL).

§ Visibility from observer

Set your observer location to see the next 7 days of passes ≥ 10°. The values pass through the URL so the page stays shareable.

No JS? Fill the form by hand. The geolocation button needs JavaScript.